No particular awareness of the weather is required.    There are no Weather-warnings


Meteo18 Weather Cam more information Meteo18 Weather Cam


Thunder radar more information blitzortung!


Rain radar more information rain snow radar


Visit our other weather sites:

Template documentation
and downloads

And another site



Weather Underground History page Text

Daily Summary for February 1, 2018 Units:  Both    English   Metric
« Previous Day
Next Day »
Daily Weekly Monthly Yearly Custom
  High: Low: Average:
Temperature: TemperatureC °F /  -17.8 °C 0.5 °F /  -17.5 °C 3.4 °F /  -15.9 °C
Dew Point: DewpointC °F /  -17.8 °C -0.2 °F /  -17.9 °C 2 °F /  -16.7 °C
Humidity: Humidity % 78 % 90 %
Wind Speed: WindSpeedKMH mph /  0 km/h - 5.8 mph /  9.3 km/h
Wind Gust: WindSpeedGustKMH mph /  0 km/h - -
Wind:- - WSW
Pressure: PressurehPa in /  0 hPa 1006.7 in /  34086.9 hPa -
Precipitation: 1.8 in /  45.72 mm    
Historical Graphs
 
 
Tabular Data for February 1, 2018
Time Temperature Dew Point Pressure Wind Wind Speed Wind Gust Humidity Rainfall Rate (Hourly)
TemperatureC °F /  -17.8 °C DewpointC °F /  -17.8 °C PressurehPa in /  0 hPa Calm     Humidity % HourlyPrecipMM in /  0 mm
00:05 5.0 °F /  -15 °C 4.0 °F /  -15.6 °C 1008.4 in /  34144.4 hPa WSW 4.7 mph /  7.6 km/h 11.3 mph /  18.2 km/h 93 % 0.5 in /  12.7 mm
00:11 5.0 °F /  -15 °C 4.0 °F /  -15.6 °C 1008.4 in /  34144.4 hPa WSW 7.9 mph /  12.7 km/h 12.9 mph /  20.8 km/h 93 % 0.8 in /  20.32 mm
00:17 5.0 °F /  -15 °C 4.0 °F /  -15.6 °C 1008.4 in /  34144.4 hPa SW 6.4 mph /  10.3 km/h 8.0 mph /  12.9 km/h 93 % 0.5 in /  12.7 mm
00:23 5.1 °F /  -14.9 °C 4.1 °F /  -15.5 °C 1008.4 in /  34144.4 hPa WSW 6.4 mph /  10.3 km/h 14.5 mph /  23.3 km/h 93 % 0.8 in /  20.32 mm
00:29 5.1 °F /  -14.9 °C 4.1 °F /  -15.5 °C 1008.4 in /  34144.4 hPa West 9.7 mph /  15.6 km/h 16.1 mph /  25.9 km/h 93 % 0.5 in /  12.7 mm
00:35 5.1 °F /  -14.9 °C 4.1 °F /  -15.5 °C 1008.4 in /  34144.4 hPa WSW 7.9 mph /  12.7 km/h 11.3 mph /  18.2 km/h 93 % 0.8 in /  20.32 mm
00:41 5.1 °F /  -14.9 °C 4.1 °F /  -15.5 °C 1008.4 in /  34144.4 hPa West 4.7 mph /  7.6 km/h 12.9 mph /  20.8 km/h 93 % 0.8 in /  20.32 mm
00:47 5.1 °F /  -14.9 °C 4.1 °F /  -15.5 °C 1008.4 in /  34144.4 hPa West 7.9 mph /  12.7 km/h 12.9 mph /  20.8 km/h 93 % 1.0 in /  25.4 mm
00:53 5.0 °F /  -15 °C 4.0 °F /  -15.6 °C 1008.4 in /  34144.4 hPa West 4.7 mph /  7.6 km/h 16.1 mph /  25.9 km/h 93 % 1.0 in /  25.4 mm
00:59 5.1 °F /  -14.9 °C 3.8 °F /  -15.7 °C 1008.4 in /  34144.4 hPa WNW 9.7 mph /  15.6 km/h 14.5 mph /  23.3 km/h 91 % 1.0 in /  25.4 mm
01:06 5.1 °F /  -14.9 °C 3.6 °F /  -15.8 °C 1008.4 in /  34144.4 hPa West 17.7 mph /  28.5 km/h 22.5 mph /  36.2 km/h 90 % 1.0 in /  25.4 mm
01:11 5.1 °F /  -14.9 °C 3.4 °F /  -15.9 °C 1008.4 in /  34144.4 hPa West 14.3 mph /  23 km/h 17.7 mph /  28.5 km/h 89 % 1.0 in /  25.4 mm
01:18 5.0 °F /  -15 °C 3.3 °F /  -15.9 °C 1008.4 in /  34144.4 hPa West 11.1 mph /  17.9 km/h 14.5 mph /  23.3 km/h 89 % 1.0 in /  25.4 mm
01:24 4.9 °F /  -15.1 °C 3.4 °F /  -15.9 °C 1008.4 in /  34144.4 hPa West 9.7 mph /  15.6 km/h 17.7 mph /  28.5 km/h 90 % 0.8 in /  20.32 mm
01:30 4.9 °F /  -15.1 °C 3.4 °F /  -15.9 °C 1008.4 in /  34144.4 hPa WNW 7.9 mph /  12.7 km/h 12.9 mph /  20.8 km/h 90 % 1.0 in /  25.4 mm
01:36 4.8 °F /  -15.1 °C 3.5 °F /  -15.8 °C 1008.0 in /  34130.9 hPa West 1.4 mph /  2.3 km/h 8.0 mph /  12.9 km/h 91 % 0.8 in /  20.32 mm
01:42 4.7 °F /  -15.2 °C 3.4 °F /  -15.9 °C 1008.4 in /  34144.4 hPa WSW 7.9 mph /  12.7 km/h 11.3 mph /  18.2 km/h 91 % 0.8 in /  20.32 mm
01:48 4.7 °F /  -15.2 °C 3.4 °F /  -15.9 °C 1008.4 in /  34144.4 hPa West 3.2 mph /  5.1 km/h 6.4 mph /  10.3 km/h 91 % 0.5 in /  12.7 mm
01:54 4.6 °F /  -15.2 °C 3.4 °F /  -15.9 °C 1008.4 in /  34144.4 hPa WSW 4.7 mph /  7.6 km/h 11.3 mph /  18.2 km/h 92 % 0.5 in /  12.7 mm
02:00 4.6 °F /  -15.2 °C 3.3 °F /  -15.9 °C 1008.4 in /  34144.4 hPa WNW 7.9 mph /  12.7 km/h 9.7 mph /  15.6 km/h 91 % 0.5 in /  12.7 mm
02:06 4.6 °F /  -15.2 °C 3.1 °F /  -16.1 °C 1008.4 in /  34144.4 hPa West 7.9 mph /  12.7 km/h 11.3 mph /  18.2 km/h 90 % 0.5 in /  12.7 mm
02:12 4.6 °F /  -15.2 °C 3.1 °F /  -16.1 °C 1008.4 in /  34144.4 hPa West 4.7 mph /  7.6 km/h 8.0 mph /  12.9 km/h 90 % 0.5 in /  12.7 mm
02:18 4.5 °F /  -15.3 °C 3.0 °F /  -16.1 °C 1008.4 in /  34144.4 hPa WNW 11.1 mph /  17.9 km/h 16.1 mph /  25.9 km/h 90 % 0.5 in /  12.7 mm
02:24 4.5 °F /  -15.3 °C 3.0 °F /  -16.1 °C 1008.0 in /  34130.9 hPa West 14.3 mph /  23 km/h 14.5 mph /  23.3 km/h 90 % 0.5 in /  12.7 mm
02:30 4.4 °F /  -15.3 °C 2.7 °F /  -16.3 °C 1008.0 in /  34130.9 hPa WNW 7.9 mph /  12.7 km/h 12.9 mph /  20.8 km/h 89 % 0.3 in /  7.62 mm
02:36 4.4 °F /  -15.3 °C 2.7 °F /  -16.3 °C 1008.0 in /  34130.9 hPa WNW 7.9 mph /  12.7 km/h 11.3 mph /  18.2 km/h 89 % 0.3 in /  7.62 mm
02:42 4.3 °F /  -15.4 °C 2.8 °F /  -16.2 °C 1008.0 in /  34130.9 hPa WNW 4.7 mph /  7.6 km/h 6.4 mph /  10.3 km/h 90 % 0.0 in /  0 mm
02:48 4.3 °F /  -15.4 °C 2.8 °F /  -16.2 °C 1008.0 in /  34130.9 hPa WNW 3.2 mph /  5.1 km/h 6.4 mph /  10.3 km/h 90 % 0.0 in /  0 mm
02:54 4.2 °F /  -15.4 °C 2.7 °F /  -16.3 °C 1008.0 in /  34130.9 hPa West 4.7 mph /  7.6 km/h 9.7 mph /  15.6 km/h 90 % 0.0 in /  0 mm
03:00 4.1 °F /  -15.5 °C 2.8 °F /  -16.2 °C 1008.0 in /  34130.9 hPa West 4.7 mph /  7.6 km/h 9.7 mph /  15.6 km/h 91 % 0.0 in /  0 mm
03:06 4.0 °F /  -15.6 °C 2.7 °F /  -16.3 °C 1008.0 in /  34130.9 hPa West 4.7 mph /  7.6 km/h 9.7 mph /  15.6 km/h 91 % 0.0 in /  0 mm
03:12 3.9 °F /  -15.6 °C 2.6 °F /  -16.3 °C 1008.0 in /  34130.9 hPa West 7.9 mph /  12.7 km/h 9.7 mph /  15.6 km/h 91 % 0.0 in /  0 mm
03:18 3.8 °F /  -15.7 °C 2.5 °F /  -16.4 °C 1008.0 in /  34130.9 hPa West 4.7 mph /  7.6 km/h 8.0 mph /  12.9 km/h 91 % 0.0 in /  0 mm
03:24 3.8 °F /  -15.7 °C 2.5 °F /  -16.4 °C 1008.0 in /  34130.9 hPa West 4.7 mph /  7.6 km/h 8.0 mph /  12.9 km/h 91 % 0.0 in /  0 mm
03:30 3.8 °F /  -15.7 °C 2.6 °F /  -16.3 °C 1008.0 in /  34130.9 hPa West 1.4 mph /  2.3 km/h 6.4 mph /  10.3 km/h 92 % 0.0 in /  0 mm
03:36 3.7 °F /  -15.7 °C 2.5 °F /  -16.4 °C 1008.0 in /  34130.9 hPa WNW 4.7 mph /  7.6 km/h 6.4 mph /  10.3 km/h 92 % 0.0 in /  0 mm
03:42 3.7 °F /  -15.7 °C 2.5 °F /  -16.4 °C 1008.0 in /  34130.9 hPa West 4.7 mph /  7.6 km/h 9.7 mph /  15.6 km/h 92 % 0.0 in /  0 mm
03:48 3.7 °F /  -15.7 °C 2.5 °F /  -16.4 °C 1008.0 in /  34130.9 hPa West 6.4 mph /  10.3 km/h 8.0 mph /  12.9 km/h 92 % 0.0 in /  0 mm
03:54 3.8 °F /  -15.7 °C 2.5 °F /  -16.4 °C 1007.7 in /  34120.7 hPa West 9.7 mph /  15.6 km/h 11.3 mph /  18.2 km/h 91 % 0.0 in /  0 mm
04:00 3.8 °F /  -15.7 °C 2.5 °F /  -16.4 °C 1007.7 in /  34120.7 hPa West 6.4 mph /  10.3 km/h 12.9 mph /  20.8 km/h 91 % 0.0 in /  0 mm
04:06 3.7 °F /  -15.7 °C 2.4 °F /  -16.4 °C 1007.7 in /  34120.7 hPa WSW 6.4 mph /  10.3 km/h 9.7 mph /  15.6 km/h 91 % 0.0 in /  0 mm
04:12 3.6 °F /  -15.8 °C 2.4 °F /  -16.4 °C 1007.7 in /  34120.7 hPa WSW 4.7 mph /  7.6 km/h 12.9 mph /  20.8 km/h 92 % 0.0 in /  0 mm
04:18 3.6 °F /  -15.8 °C 2.4 °F /  -16.4 °C 1007.7 in /  34120.7 hPa WSW 3.2 mph /  5.1 km/h 6.4 mph /  10.3 km/h 92 % 0.0 in /  0 mm
04:24 3.4 °F /  -15.9 °C 2.2 °F /  -16.6 °C 1007.3 in /  34107.2 hPa West 4.7 mph /  7.6 km/h 4.8 mph /  7.7 km/h 92 % 0.0 in /  0 mm
04:30 3.3 °F /  -15.9 °C 2.3 °F /  -16.5 °C 1007.3 in /  34107.2 hPa WSW 3.2 mph /  5.1 km/h 4.8 mph /  7.7 km/h 93 % 0.0 in /  0 mm
04:36 3.3 °F /  -15.9 °C 2.3 °F /  -16.5 °C 1007.3 in /  34107.2 hPa SW 3.2 mph /  5.1 km/h 6.4 mph /  10.3 km/h 93 % 0.0 in /  0 mm
04:42 3.3 °F /  -15.9 °C 2.4 °F /  -16.4 °C 1007.3 in /  34107.2 hPa SW 4.7 mph /  7.6 km/h 9.7 mph /  15.6 km/h 94 % 0.0 in /  0 mm
04:48 3.3 °F /  -15.9 °C 2.4 °F /  -16.4 °C 1007.3 in /  34107.2 hPa SW 3.2 mph /  5.1 km/h 11.3 mph /  18.2 km/h 94 % 0.0 in /  0 mm
04:54 3.4 °F /  -15.9 °C 2.5 °F /  -16.4 °C 1007.7 in /  34120.7 hPa WSW 6.4 mph /  10.3 km/h 9.7 mph /  15.6 km/h 94 % 0.0 in /  0 mm
05:00 3.5 °F /  -15.8 °C 2.6 °F /  -16.3 °C 1007.7 in /  34120.7 hPa SW 3.2 mph /  5.1 km/h 4.8 mph /  7.7 km/h 94 % 0.0 in /  0 mm
05:06 3.5 °F /  -15.8 °C 2.6 °F /  -16.3 °C 1007.7 in /  34120.7 hPa SSW 4.7 mph /  7.6 km/h 6.4 mph /  10.3 km/h 94 % 0.0 in /  0 mm
05:12 3.7 °F /  -15.7 °C 2.8 °F /  -16.2 °C 1007.7 in /  34120.7 hPa WSW 4.7 mph /  7.6 km/h 9.7 mph /  15.6 km/h 94 % 0.0 in /  0 mm
05:18 3.8 °F /  -15.7 °C 2.8 °F /  -16.2 °C 1007.7 in /  34120.7 hPa West 7.9 mph /  12.7 km/h 11.3 mph /  18.2 km/h 93 % 0.0 in /  0 mm
05:24 3.9 °F /  -15.6 °C 2.7 °F /  -16.3 °C 1007.7 in /  34120.7 hPa West 7.9 mph /  12.7 km/h 9.7 mph /  15.6 km/h 92 % 0.0 in /  0 mm
05:30 3.9 °F /  -15.6 °C 2.7 °F /  -16.3 °C 1007.7 in /  34120.7 hPa West 7.9 mph /  12.7 km/h 12.9 mph /  20.8 km/h 92 % 0.0 in /  0 mm
05:36 3.8 °F /  -15.7 °C 2.6 °F /  -16.3 °C 1007.7 in /  34120.7 hPa West 4.7 mph /  7.6 km/h 9.7 mph /  15.6 km/h 92 % 0.0 in /  0 mm
05:42 3.8 °F /  -15.7 °C 2.5 °F /  -16.4 °C 1007.7 in /  34120.7 hPa SW 11.1 mph /  17.9 km/h 11.3 mph /  18.2 km/h 91 % 0.0 in /  0 mm
05:48 3.7 °F /  -15.7 °C 2.4 °F /  -16.4 °C 1007.3 in /  34107.2 hPa WSW 6.4 mph /  10.3 km/h 9.7 mph /  15.6 km/h 91 % 0.0 in /  0 mm
05:54 3.6 °F /  -15.8 °C 2.3 °F /  -16.5 °C 1007.3 in /  34107.2 hPa West 7.9 mph /  12.7 km/h 16.1 mph /  25.9 km/h 91 % 0.0 in /  0 mm
06:00 3.6 °F /  -15.8 °C 2.3 °F /  -16.5 °C 1007.3 in /  34107.2 hPa West 6.4 mph /  10.3 km/h 12.9 mph /  20.8 km/h 91 % 0.0 in /  0 mm
06:06 3.5 °F /  -15.8 °C 2.2 °F /  -16.6 °C 1007.3 in /  34107.2 hPa SW 9.7 mph /  15.6 km/h 14.5 mph /  23.3 km/h 91 % 0.0 in /  0 mm
06:12 3.4 °F /  -15.9 °C 2.2 °F /  -16.6 °C 1007.3 in /  34107.2 hPa WSW 13.0 mph /  20.9 km/h 16.1 mph /  25.9 km/h 92 % 0.0 in /  0 mm
06:18 3.4 °F /  -15.9 °C 2.2 °F /  -16.6 °C 1007.3 in /  34107.2 hPa WSW 7.9 mph /  12.7 km/h 14.5 mph /  23.3 km/h 92 % 0.0 in /  0 mm
06:24 3.3 °F /  -15.9 °C 2.1 °F /  -16.6 °C 1007.3 in /  34107.2 hPa WSW 4.7 mph /  7.6 km/h 8.0 mph /  12.9 km/h 92 % 0.0 in /  0 mm
06:30 3.3 °F /  -15.9 °C 2.1 °F /  -16.6 °C 1007.0 in /  34097 hPa SW 9.7 mph /  15.6 km/h 14.5 mph /  23.3 km/h 92 % 0.0 in /  0 mm
06:36 3.3 °F /  -15.9 °C 2.3 °F /  -16.5 °C 1007.0 in /  34097 hPa WSW 6.4 mph /  10.3 km/h 16.1 mph /  25.9 km/h 93 % 0.0 in /  0 mm
06:42 3.2 °F /  -16 °C 2.2 °F /  -16.6 °C 1007.0 in /  34097 hPa West 7.9 mph /  12.7 km/h 14.5 mph /  23.3 km/h 93 % 0.0 in /  0 mm
06:48 3.2 °F /  -16 °C 2.3 °F /  -16.5 °C 1007.0 in /  34097 hPa WSW 6.4 mph /  10.3 km/h 16.1 mph /  25.9 km/h 94 % 0.0 in /  0 mm
06:54 3.2 °F /  -16 °C 2.3 °F /  -16.5 °C 1007.0 in /  34097 hPa SSW 7.9 mph /  12.7 km/h 12.9 mph /  20.8 km/h 94 % 0.0 in /  0 mm
07:00 3.1 °F /  -16.1 °C 2.2 °F /  -16.6 °C 1007.0 in /  34097 hPa WSW 7.9 mph /  12.7 km/h 17.7 mph /  28.5 km/h 94 % 0.0 in /  0 mm
07:06 3.1 °F /  -16.1 °C 2.2 °F /  -16.6 °C 1007.0 in /  34097 hPa SW 11.1 mph /  17.9 km/h 19.3 mph /  31.1 km/h 94 % 0.0 in /  0 mm
07:12 2.9 °F /  -16.2 °C 2.0 °F /  -16.7 °C 1006.7 in /  34086.9 hPa SW 13.0 mph /  20.9 km/h 20.9 mph /  33.6 km/h 94 % 0.0 in /  0 mm
07:18 2.9 °F /  -16.2 °C 2.0 °F /  -16.7 °C 1006.7 in /  34086.9 hPa SW 11.1 mph /  17.9 km/h 16.1 mph /  25.9 km/h 94 % 0.0 in /  0 mm
07:30 2.6 °F /  -16.3 °C 1.7 °F /  -16.8 °C 1006.7 in /  34086.9 hPa SW 6.4 mph /  10.3 km/h 12.9 mph /  20.8 km/h 94 % 0.0 in /  0 mm
07:36 2.5 °F /  -16.4 °C 1.6 °F /  -16.9 °C 1006.7 in /  34086.9 hPa WSW 3.2 mph /  5.1 km/h 8.0 mph /  12.9 km/h 94 % 0.0 in /  0 mm
07:42 2.4 °F /  -16.4 °C 1.7 °F /  -16.8 °C 1006.7 in /  34086.9 hPa SW 1.4 mph /  2.3 km/h 11.3 mph /  18.2 km/h 95 % 0.0 in /  0 mm
07:48 2.3 °F /  -16.5 °C 1.6 °F /  -16.9 °C 1007.0 in /  34097 hPa SW 6.4 mph /  10.3 km/h 8.0 mph /  12.9 km/h 95 % 0.0 in /  0 mm
07:54 2.3 °F /  -16.5 °C 1.6 °F /  -16.9 °C 1006.7 in /  34086.9 hPa SSW 7.9 mph /  12.7 km/h 14.5 mph /  23.3 km/h 95 % 0.0 in /  0 mm
08:00 2.2 °F /  -16.6 °C 1.5 °F /  -16.9 °C 1006.7 in /  34086.9 hPa SW 9.7 mph /  15.6 km/h 12.9 mph /  20.8 km/h 95 % 0.0 in /  0 mm
08:06 2.2 °F /  -16.6 °C 1.5 °F /  -16.9 °C 1007.0 in /  34097 hPa WSW 13.0 mph /  20.9 km/h 16.1 mph /  25.9 km/h 95 % 0.0 in /  0 mm
08:12 2.2 °F /  -16.6 °C 1.5 °F /  -16.9 °C 1007.0 in /  34097 hPa WSW 7.9 mph /  12.7 km/h 19.3 mph /  31.1 km/h 95 % 0.0 in /  0 mm
08:18 2.3 °F /  -16.5 °C 1.6 °F /  -16.9 °C 1007.0 in /  34097 hPa WSW 13.0 mph /  20.9 km/h 17.7 mph /  28.5 km/h 95 % 0.0 in /  0 mm
08:25 2.3 °F /  -16.5 °C 1.4 °F /  -17 °C 1007.0 in /  34097 hPa SW 13.0 mph /  20.9 km/h 19.3 mph /  31.1 km/h 94 % 0.0 in /  0 mm
08:31 2.4 °F /  -16.4 °C 1.5 °F /  -16.9 °C 1007.3 in /  34107.2 hPa SW 6.4 mph /  10.3 km/h 17.7 mph /  28.5 km/h 94 % 0.0 in /  0 mm
08:37 2.4 °F /  -16.4 °C 1.5 °F /  -16.9 °C 1007.3 in /  34107.2 hPa WSW 6.4 mph /  10.3 km/h 11.3 mph /  18.2 km/h 94 % 0.0 in /  0 mm
08:43 2.4 °F /  -16.4 °C 1.5 °F /  -16.9 °C 1007.3 in /  34107.2 hPa WSW 13.0 mph /  20.9 km/h 14.5 mph /  23.3 km/h 94 % 0.0 in /  0 mm
08:49 2.4 °F /  -16.4 °C 1.5 °F /  -16.9 °C 1007.3 in /  34107.2 hPa WSW 13.0 mph /  20.9 km/h 13.0 mph /  20.9 km/h 94 % 0.0 in /  0 mm
08:55 2.4 °F /  -16.4 °C 1.5 °F /  -16.9 °C 1007.0 in /  34097 hPa SW 7.9 mph /  12.7 km/h 14.5 mph /  23.3 km/h 94 % 0.0 in /  0 mm
09:01 2.4 °F /  -16.4 °C 1.5 °F /  -16.9 °C 1007.0 in /  34097 hPa WSW 3.2 mph /  5.1 km/h 12.9 mph /  20.8 km/h 94 % 0.0 in /  0 mm
09:09 2.4 °F /  -16.4 °C 1.5 °F /  -16.9 °C 1007.3 in /  34107.2 hPa West 7.9 mph /  12.7 km/h 17.7 mph /  28.5 km/h 94 % 0.0 in /  0 mm
09:17 2.6 °F /  -16.3 °C 1.7 °F /  -16.8 °C 1007.3 in /  34107.2 hPa WNW 4.7 mph /  7.6 km/h 14.5 mph /  23.3 km/h 94 % 0.0 in /  0 mm
09:23 2.6 °F /  -16.3 °C 1.7 °F /  -16.8 °C 1007.3 in /  34107.2 hPa WSW 9.7 mph /  15.6 km/h 12.9 mph /  20.8 km/h 94 % 0.0 in /  0 mm
09:29 2.7 °F /  -16.3 °C 1.8 °F /  -16.8 °C 1007.3 in /  34107.2 hPa WSW 4.7 mph /  7.6 km/h 12.9 mph /  20.8 km/h 94 % 0.0 in /  0 mm
09:35 2.7 °F /  -16.3 °C 1.8 °F /  -16.8 °C 1007.0 in /  34097 hPa WSW 6.4 mph /  10.3 km/h 19.3 mph /  31.1 km/h 94 % 0.0 in /  0 mm
09:41 2.8 °F /  -16.2 °C 1.9 °F /  -16.7 °C 1007.0 in /  34097 hPa WSW 11.1 mph /  17.9 km/h 14.5 mph /  23.3 km/h 94 % 0.0 in /  0 mm
09:47 2.8 °F /  -16.2 °C 1.9 °F /  -16.7 °C 1007.0 in /  34097 hPa SW 4.7 mph /  7.6 km/h 12.9 mph /  20.8 km/h 94 % 0.0 in /  0 mm
09:53 2.8 °F /  -16.2 °C 1.9 °F /  -16.7 °C 1007.0 in /  34097 hPa WSW 6.4 mph /  10.3 km/h 11.3 mph /  18.2 km/h 94 % 0.0 in /  0 mm
09:59 2.9 °F /  -16.2 °C 1.9 °F /  -16.7 °C 1007.0 in /  34097 hPa WSW 7.9 mph /  12.7 km/h 19.3 mph /  31.1 km/h 93 % 0.0 in /  0 mm
10:05 3.0 °F /  -16.1 °C 2.0 °F /  -16.7 °C 1007.0 in /  34097 hPa WSW 6.4 mph /  10.3 km/h 16.1 mph /  25.9 km/h 93 % 0.0 in /  0 mm
10:11 3.1 °F /  -16.1 °C 2.1 °F /  -16.6 °C 1007.0 in /  34097 hPa SW 13.0 mph /  20.9 km/h 19.3 mph /  31.1 km/h 93 % 0.0 in /  0 mm
10:17 3.2 °F /  -16 °C 2.2 °F /  -16.6 °C 1007.0 in /  34097 hPa WSW 6.4 mph /  10.3 km/h 9.7 mph /  15.6 km/h 93 % 0.0 in /  0 mm
10:23 3.2 °F /  -16 °C 2.0 °F /  -16.7 °C 1007.0 in /  34097 hPa SW 4.7 mph /  7.6 km/h 17.7 mph /  28.5 km/h 92 % 0.0 in /  0 mm
10:29 3.3 °F /  -15.9 °C 2.1 °F /  -16.6 °C 1007.0 in /  34097 hPa West 9.7 mph /  15.6 km/h 17.7 mph /  28.5 km/h 92 % 0.0 in /  0 mm
10:35 3.3 °F /  -15.9 °C 2.1 °F /  -16.6 °C 1007.0 in /  34097 hPa WSW 4.7 mph /  7.6 km/h 12.9 mph /  20.8 km/h 92 % 0.0 in /  0 mm
10:41 3.4 °F /  -15.9 °C 2.2 °F /  -16.6 °C 1007.0 in /  34097 hPa West 19.5 mph /  31.4 km/h 20.9 mph /  33.6 km/h 92 % 0.0 in /  0 mm
10:47 3.4 °F /  -15.9 °C 2.2 °F /  -16.6 °C 1007.3 in /  34107.2 hPa WSW 11.1 mph /  17.9 km/h 11.3 mph /  18.2 km/h 92 % 0.0 in /  0 mm
10:53 3.4 °F /  -15.9 °C 2.2 °F /  -16.6 °C 1007.0 in /  34097 hPa WSW 9.7 mph /  15.6 km/h 14.5 mph /  23.3 km/h 92 % 0.0 in /  0 mm
10:59 3.4 °F /  -15.9 °C 2.4 °F /  -16.4 °C 1007.3 in /  34107.2 hPa West 11.1 mph /  17.9 km/h 14.5 mph /  23.3 km/h 93 % 0.0 in /  0 mm
11:05 3.5 °F /  -15.8 °C 2.5 °F /  -16.4 °C 1007.3 in /  34107.2 hPa WSW 7.9 mph /  12.7 km/h 9.7 mph /  15.6 km/h 93 % 0.0 in /  0 mm
11:11 3.5 °F /  -15.8 °C 2.3 °F /  -16.5 °C 1007.3 in /  34107.2 hPa WSW 9.7 mph /  15.6 km/h 17.7 mph /  28.5 km/h 92 % 0.0 in /  0 mm
11:17 3.6 °F /  -15.8 °C 2.4 °F /  -16.4 °C 1007.3 in /  34107.2 hPa West 13.0 mph /  20.9 km/h 16.1 mph /  25.9 km/h 92 % 0.0 in /  0 mm
11:23 3.6 °F /  -15.8 °C 2.4 °F /  -16.4 °C 1007.3 in /  34107.2 hPa West 7.9 mph /  12.7 km/h 9.7 mph /  15.6 km/h 92 % 0.0 in /  0 mm
11:29 3.7 °F /  -15.7 °C 2.4 °F /  -16.4 °C 1007.3 in /  34107.2 hPa West 14.3 mph /  23 km/h 24.1 mph /  38.8 km/h 91 % 0.0 in /  0 mm
11:35 3.6 °F /  -15.8 °C 2.3 °F /  -16.5 °C 1007.3 in /  34107.2 hPa WNW 11.1 mph /  17.9 km/h 14.5 mph /  23.3 km/h 91 % 0.0 in /  0 mm
11:41 3.6 °F /  -15.8 °C 2.4 °F /  -16.4 °C 1007.3 in /  34107.2 hPa WSW 9.7 mph /  15.6 km/h 14.5 mph /  23.3 km/h 92 % 0.0 in /  0 mm
11:47 3.6 °F /  -15.8 °C 2.4 °F /  -16.4 °C 1007.3 in /  34107.2 hPa WSW 6.4 mph /  10.3 km/h 19.3 mph /  31.1 km/h 92 % 0.0 in /  0 mm
11:53 3.6 °F /  -15.8 °C 2.4 °F /  -16.4 °C 1007.3 in /  34107.2 hPa WSW 9.7 mph /  15.6 km/h 14.5 mph /  23.3 km/h 92 % 0.0 in /  0 mm
11:59 3.7 °F /  -15.7 °C 2.5 °F /  -16.4 °C 1007.3 in /  34107.2 hPa WSW 11.1 mph /  17.9 km/h 17.7 mph /  28.5 km/h 92 % 0.0 in /  0 mm
12:05 3.7 °F /  -15.7 °C 2.5 °F /  -16.4 °C 1007.3 in /  34107.2 hPa WNW 7.9 mph /  12.7 km/h 14.5 mph /  23.3 km/h 92 % 0.0 in /  0 mm
12:11 3.7 °F /  -15.7 °C 2.5 °F /  -16.4 °C 1007.3 in /  34107.2 hPa WSW 9.7 mph /  15.6 km/h 11.3 mph /  18.2 km/h 92 % 0.0 in /  0 mm
12:17 3.8 °F /  -15.7 °C 2.5 °F /  -16.4 °C 1007.3 in /  34107.2 hPa WSW 4.7 mph /  7.6 km/h 16.1 mph /  25.9 km/h 91 % 0.0 in /  0 mm
12:23 3.9 °F /  -15.6 °C 2.6 °F /  -16.3 °C 1007.3 in /  34107.2 hPa WSW 9.7 mph /  15.6 km/h 11.3 mph /  18.2 km/h 91 % 0.0 in /  0 mm
12:29 3.8 °F /  -15.7 °C 2.3 °F /  -16.5 °C 1007.3 in /  34107.2 hPa WNW 16.3 mph /  26.2 km/h 17.7 mph /  28.5 km/h 90 % 0.0 in /  0 mm
12:35 3.8 °F /  -15.7 °C 2.3 °F /  -16.5 °C 1007.3 in /  34107.2 hPa West 3.2 mph /  5.1 km/h 17.7 mph /  28.5 km/h 90 % 0.0 in /  0 mm
12:41 3.8 °F /  -15.7 °C 2.3 °F /  -16.5 °C 1007.3 in /  34107.2 hPa WNW 6.4 mph /  10.3 km/h 14.5 mph /  23.3 km/h 90 % 0.0 in /  0 mm
12:47 3.8 °F /  -15.7 °C 2.3 °F /  -16.5 °C 1007.3 in /  34107.2 hPa WNW 3.2 mph /  5.1 km/h 14.5 mph /  23.3 km/h 90 % 0.0 in /  0 mm
12:53 3.8 °F /  -15.7 °C 2.3 °F /  -16.5 °C 1007.0 in /  34097 hPa WSW 6.4 mph /  10.3 km/h 14.5 mph /  23.3 km/h 90 % 0.0 in /  0 mm
12:59 3.9 °F /  -15.6 °C 2.4 °F /  -16.4 °C 1007.0 in /  34097 hPa WSW 7.9 mph /  12.7 km/h 12.9 mph /  20.8 km/h 90 % 0.0 in /  0 mm
13:05 3.9 °F /  -15.6 °C 2.4 °F /  -16.4 °C 1007.0 in /  34097 hPa West 4.7 mph /  7.6 km/h 14.5 mph /  23.3 km/h 90 % 0.0 in /  0 mm
13:11 4.0 °F /  -15.6 °C 2.5 °F /  -16.4 °C 1007.0 in /  34097 hPa West 14.3 mph /  23 km/h 16.1 mph /  25.9 km/h 90 % 0.0 in /  0 mm
13:17 3.9 °F /  -15.6 °C 2.4 °F /  -16.4 °C 1007.0 in /  34097 hPa WNW 7.9 mph /  12.7 km/h 24.1 mph /  38.8 km/h 90 % 0.0 in /  0 mm
13:23 3.9 °F /  -15.6 °C 2.4 °F /  -16.4 °C 1007.0 in /  34097 hPa NW 9.7 mph /  15.6 km/h 20.9 mph /  33.6 km/h 90 % 0.0 in /  0 mm
13:29 3.8 °F /  -15.7 °C 2.5 °F /  -16.4 °C 1007.0 in /  34097 hPa WNW 6.4 mph /  10.3 km/h 17.7 mph /  28.5 km/h 91 % 0.0 in /  0 mm
13:35 3.8 °F /  -15.7 °C 2.5 °F /  -16.4 °C 1007.0 in /  34097 hPa WNW 4.7 mph /  7.6 km/h 16.1 mph /  25.9 km/h 91 % 0.3 in /  7.62 mm
13:41 3.8 °F /  -15.7 °C 2.6 °F /  -16.3 °C 1007.0 in /  34097 hPa WNW 13.0 mph /  20.9 km/h 14.5 mph /  23.3 km/h 92 % 0.3 in /  7.62 mm
13:47 3.9 °F /  -15.6 °C 2.4 °F /  -16.4 °C 1007.0 in /  34097 hPa WNW 4.7 mph /  7.6 km/h 14.5 mph /  23.3 km/h 90 % 0.3 in /  7.62 mm
13:53 4.1 °F /  -15.5 °C 2.8 °F /  -16.2 °C 1007.0 in /  34097 hPa West 14.3 mph /  23 km/h 16.1 mph /  25.9 km/h 91 % 0.3 in /  7.62 mm
13:59 4.1 °F /  -15.5 °C 2.6 °F /  -16.3 °C 1007.0 in /  34097 hPa WNW 9.7 mph /  15.6 km/h 16.1 mph /  25.9 km/h 90 % 0.3 in /  7.62 mm
14:05 4.2 °F /  -15.4 °C 2.7 °F /  -16.3 °C 1007.0 in /  34097 hPa WNW 13.0 mph /  20.9 km/h 16.1 mph /  25.9 km/h 90 % 0.3 in /  7.62 mm
14:11 4.2 °F /  -15.4 °C 2.5 °F /  -16.4 °C 1007.0 in /  34097 hPa WNW 7.9 mph /  12.7 km/h 12.9 mph /  20.8 km/h 89 % 0.3 in /  7.62 mm
14:17 4.1 °F /  -15.5 °C 2.5 °F /  -16.4 °C 1007.0 in /  34097 hPa WNW 7.9 mph /  12.7 km/h 11.3 mph /  18.2 km/h 89 % 0.3 in /  7.62 mm
14:23 4.2 °F /  -15.4 °C 2.5 °F /  -16.4 °C 1007.0 in /  34097 hPa NW 3.2 mph /  5.1 km/h 8.0 mph /  12.9 km/h 89 % 0.3 in /  7.62 mm
14:29 4.2 °F /  -15.4 °C 2.4 °F /  -16.4 °C 1007.0 in /  34097 hPa WNW 3.2 mph /  5.1 km/h 9.7 mph /  15.6 km/h 88 % 0.3 in /  7.62 mm
14:35 4.2 °F /  -15.4 °C 2.4 °F /  -16.4 °C 1007.0 in /  34097 hPa NW 1.4 mph /  2.3 km/h 11.3 mph /  18.2 km/h 88 % 0.0 in /  0 mm
14:41 4.2 °F /  -15.4 °C 2.4 °F /  -16.4 °C 1007.0 in /  34097 hPa WNW 1.4 mph /  2.3 km/h 3.2 mph /  5.1 km/h 88 % 0.0 in /  0 mm
14:47 4.3 °F /  -15.4 °C 2.3 °F /  -16.5 °C 1007.0 in /  34097 hPa West 3.2 mph /  5.1 km/h 8.0 mph /  12.9 km/h 87 % 0.0 in /  0 mm
14:53 4.3 °F /  -15.4 °C 2.3 °F /  -16.5 °C 1007.3 in /  34107.2 hPa WNW 1.4 mph /  2.3 km/h 4.8 mph /  7.7 km/h 87 % 0.0 in /  0 mm
14:59 4.4 °F /  -15.3 °C 2.4 °F /  -16.4 °C 1007.3 in /  34107.2 hPa West 4.7 mph /  7.6 km/h 4.8 mph /  7.7 km/h 87 % 0.0 in /  0 mm
15:05 4.4 °F /  -15.3 °C 2.4 °F /  -16.4 °C 1007.3 in /  34107.2 hPa West 1.4 mph /  2.3 km/h 6.4 mph /  10.3 km/h 87 % 0.0 in /  0 mm
15:11 4.6 °F /  -15.2 °C 2.3 °F /  -16.5 °C 1007.0 in /  34097 hPa WNW 11.1 mph /  17.9 km/h 14.5 mph /  23.3 km/h 85 % 0.0 in /  0 mm
15:17 4.7 °F /  -15.2 °C 2.4 °F /  -16.4 °C 1007.3 in /  34107.2 hPa WNW 1.4 mph /  2.3 km/h 6.4 mph /  10.3 km/h 85 % 0.0 in /  0 mm
15:23 4.7 °F /  -15.2 °C 2.2 °F /  -16.6 °C 1007.3 in /  34107.2 hPa WNW 3.2 mph /  5.1 km/h 11.3 mph /  18.2 km/h 84 % 0.0 in /  0 mm
15:29 4.8 °F /  -15.1 °C 2.5 °F /  -16.4 °C 1007.3 in /  34107.2 hPa WNW 7.9 mph /  12.7 km/h 8.0 mph /  12.9 km/h 85 % 0.0 in /  0 mm
15:35 4.9 °F /  -15.1 °C 2.1 °F /  -16.6 °C 1007.3 in /  34107.2 hPa WNW 4.7 mph /  7.6 km/h 11.3 mph /  18.2 km/h 82 % 0.0 in /  0 mm
15:41 4.9 °F /  -15.1 °C 2.1 °F /  -16.6 °C 1007.0 in /  34097 hPa WNW 3.2 mph /  5.1 km/h 11.3 mph /  18.2 km/h 82 % 0.0 in /  0 mm
15:47 4.8 °F /  -15.1 °C 2.2 °F /  -16.6 °C 1007.0 in /  34097 hPa West 1.4 mph /  2.3 km/h 9.7 mph /  15.6 km/h 83 % 0.0 in /  0 mm
15:59 5.1 °F /  -14.9 °C 2.3 °F /  -16.5 °C 1007.0 in /  34097 hPa West 3.2 mph /  5.1 km/h 4.8 mph /  7.7 km/h 82 % 0.0 in /  0 mm
16:05 5.1 °F /  -14.9 °C 2.1 °F /  -16.6 °C 1007.0 in /  34097 hPa WNW 7.9 mph /  12.7 km/h 8.0 mph /  12.9 km/h 81 % 0.0 in /  0 mm
16:11 4.9 °F /  -15.1 °C 1.9 °F /  -16.7 °C 1007.0 in /  34097 hPa West 4.7 mph /  7.6 km/h 4.8 mph /  7.7 km/h 81 % 0.0 in /  0 mm
16:17 4.8 °F /  -15.1 °C 1.8 °F /  -16.8 °C 1007.0 in /  34097 hPa WSW 1.4 mph /  2.3 km/h 4.8 mph /  7.7 km/h 81 % 0.0 in /  0 mm
16:23 5.1 °F /  -14.9 °C 2.3 °F /  -16.5 °C 1007.0 in /  34097 hPa WSW 6.4 mph /  10.3 km/h 6.4 mph /  10.3 km/h 82 % 0.0 in /  0 mm
16:29 5.2 °F /  -14.9 °C 2.0 °F /  -16.7 °C 1007.0 in /  34097 hPa WSW 3.2 mph /  5.1 km/h 4.8 mph /  7.7 km/h 80 % 0.0 in /  0 mm
16:35 5.4 °F /  -14.8 °C 2.1 °F /  -16.6 °C 1007.0 in /  34097 hPa West 3.2 mph /  5.1 km/h 4.8 mph /  7.7 km/h 79 % 0.0 in /  0 mm
16:41 5.5 °F /  -14.7 °C 2.0 °F /  -16.7 °C 1007.0 in /  34097 hPa West 3.2 mph /  5.1 km/h 4.8 mph /  7.7 km/h 78 % 0.0 in /  0 mm
16:47 5.5 °F /  -14.7 °C 2.1 °F /  -16.6 °C 1007.0 in /  34097 hPa WSW 4.7 mph /  7.6 km/h 8.0 mph /  12.9 km/h 79 % 0.0 in /  0 mm
16:53 5.4 °F /  -14.8 °C 2.2 °F /  -16.6 °C 1007.0 in /  34097 hPa West 1.4 mph /  2.3 km/h 6.4 mph /  10.3 km/h 80 % 0.0 in /  0 mm
16:59 5.4 °F /  -14.8 °C 2.2 °F /  -16.6 °C 1007.0 in /  34097 hPa West 6.4 mph /  10.3 km/h 8.0 mph /  12.9 km/h 80 % 0.0 in /  0 mm
17:05 5.2 °F /  -14.9 °C 2.2 °F /  -16.6 °C 1007.0 in /  34097 hPa West 4.7 mph /  7.6 km/h 6.4 mph /  10.3 km/h 81 % 0.0 in /  0 mm
17:11 5.0 °F /  -15 °C 2.2 °F /  -16.6 °C 1007.0 in /  34097 hPa West 1.4 mph /  2.3 km/h 6.4 mph /  10.3 km/h 82 % 0.0 in /  0 mm
17:17 4.9 °F /  -15.1 °C 1.9 °F /  -16.7 °C 1007.3 in /  34107.2 hPa West 4.7 mph /  7.6 km/h 8.0 mph /  12.9 km/h 81 % 0.0 in /  0 mm
17:24 4.8 °F /  -15.1 °C 2.0 °F /  -16.7 °C 1007.3 in /  34107.2 hPa WSW 3.2 mph /  5.1 km/h 6.4 mph /  10.3 km/h 82 % 0.0 in /  0 mm
17:30 4.8 °F /  -15.1 °C 2.0 °F /  -16.7 °C 1007.3 in /  34107.2 hPa Calm   1.6 mph /  2.6 km/h 82 % 0.0 in /  0 mm
17:36 4.6 °F /  -15.2 °C 1.8 °F /  -16.8 °C 1007.3 in /  34107.2 hPa SW 1.4 mph /  2.3 km/h 1.6 mph /  2.6 km/h 82 % 0.0 in /  0 mm
17:42 4.6 °F /  -15.2 °C 2.0 °F /  -16.7 °C 1007.3 in /  34107.2 hPa Calm   1.6 mph /  2.6 km/h 83 % 0.0 in /  0 mm
17:48 4.3 °F /  -15.4 °C 1.7 °F /  -16.8 °C 1007.3 in /  34107.2 hPa Calm   1.6 mph /  2.6 km/h 83 % 0.0 in /  0 mm
17:54 4.1 °F /  -15.5 °C 1.6 °F /  -16.9 °C 1007.7 in /  34120.7 hPa SW 1.4 mph /  2.3 km/h 1.6 mph /  2.6 km/h 84 % 0.0 in /  0 mm
18:00 3.9 °F /  -15.6 °C 1.6 °F /  -16.9 °C 1007.7 in /  34120.7 hPa WSW 1.4 mph /  2.3 km/h 4.8 mph /  7.7 km/h 85 % 0.0 in /  0 mm
18:06 3.8 °F /  -15.7 °C 1.7 °F /  -16.8 °C 1007.7 in /  34120.7 hPa WSW 1.4 mph /  2.3 km/h 1.6 mph /  2.6 km/h 86 % 0.0 in /  0 mm
18:12 3.8 °F /  -15.7 °C 1.7 °F /  -16.8 °C 1007.7 in /  34120.7 hPa SW 4.7 mph /  7.6 km/h 6.4 mph /  10.3 km/h 86 % 0.0 in /  0 mm
18:18 3.8 °F /  -15.7 °C 1.7 °F /  -16.8 °C 1008.0 in /  34130.9 hPa SW 4.7 mph /  7.6 km/h 6.4 mph /  10.3 km/h 86 % 0.0 in /  0 mm
18:24 3.8 °F /  -15.7 °C 1.7 °F /  -16.8 °C 1008.0 in /  34130.9 hPa SW 1.4 mph /  2.3 km/h 3.2 mph /  5.1 km/h 86 % 0.0 in /  0 mm
18:30 3.6 °F /  -15.8 °C 1.5 °F /  -16.9 °C 1008.0 in /  34130.9 hPa SW 3.2 mph /  5.1 km/h 4.8 mph /  7.7 km/h 86 % 0.0 in /  0 mm
18:36 3.6 °F /  -15.8 °C 1.5 °F /  -16.9 °C 1008.0 in /  34130.9 hPa SW 1.4 mph /  2.3 km/h 4.8 mph /  7.7 km/h 86 % 0.0 in /  0 mm
18:42 3.5 °F /  -15.8 °C 1.5 °F /  -16.9 °C 1007.7 in /  34120.7 hPa SW 4.7 mph /  7.6 km/h 8.0 mph /  12.9 km/h 87 % 0.0 in /  0 mm
18:48 3.4 °F /  -15.9 °C 1.6 °F /  -16.9 °C 1008.0 in /  34130.9 hPa WSW 1.4 mph /  2.3 km/h 4.8 mph /  7.7 km/h 88 % 0.0 in /  0 mm
18:54 3.3 °F /  -15.9 °C 1.5 °F /  -16.9 °C 1008.0 in /  34130.9 hPa West 1.4 mph /  2.3 km/h 3.2 mph /  5.1 km/h 88 % 0.0 in /  0 mm
19:00 3.1 °F /  -16.1 °C 1.3 °F /  -17.1 °C 1008.0 in /  34130.9 hPa WSW 3.2 mph /  5.1 km/h 4.8 mph /  7.7 km/h 88 % 0.0 in /  0 mm
19:06 2.9 °F /  -16.2 °C 1.3 °F /  -17.1 °C 1008.0 in /  34130.9 hPa WSW 1.4 mph /  2.3 km/h 1.6 mph /  2.6 km/h 89 % 0.0 in /  0 mm
19:12 2.8 °F /  -16.2 °C 1.3 °F /  -17.1 °C 1008.4 in /  34144.4 hPa SW 3.2 mph /  5.1 km/h 4.8 mph /  7.7 km/h 90 % 0.0 in /  0 mm
19:18 2.8 °F /  -16.2 °C 1.5 °F /  -16.9 °C 1008.4 in /  34144.4 hPa SSW 1.4 mph /  2.3 km/h 3.2 mph /  5.1 km/h 91 % 0.0 in /  0 mm
19:24 2.6 °F /  -16.3 °C 1.1 °F /  -17.2 °C 1008.4 in /  34144.4 hPa Calm   1.6 mph /  2.6 km/h 90 % 0.0 in /  0 mm
19:30 2.2 °F /  -16.6 °C 0.7 °F /  -17.4 °C 1008.4 in /  34144.4 hPa SSW 1.4 mph /  2.3 km/h 1.6 mph /  2.6 km/h 90 % 0.0 in /  0 mm
19:36 2.2 °F /  -16.6 °C 1.0 °F /  -17.2 °C 1008.4 in /  34144.4 hPa SSW 1.4 mph /  2.3 km/h 3.2 mph /  5.1 km/h 92 % 0.0 in /  0 mm
19:42 2.2 °F /  -16.6 °C 1.2 °F /  -17.1 °C 1008.4 in /  34144.4 hPa SW 1.4 mph /  2.3 km/h 3.2 mph /  5.1 km/h 93 % 0.0 in /  0 mm
19:48 2.2 °F /  -16.6 °C 1.2 °F /  -17.1 °C 1008.4 in /  34144.4 hPa SW 1.4 mph /  2.3 km/h 3.2 mph /  5.1 km/h 93 % 0.0 in /  0 mm
19:54 2.3 °F /  -16.5 °C 1.3 °F /  -17.1 °C 1008.7 in /  34154.6 hPa SW 1.4 mph /  2.3 km/h 6.4 mph /  10.3 km/h 93 % 0.0 in /  0 mm
20:00 2.3 °F /  -16.5 °C 1.3 °F /  -17.1 °C 1008.7 in /  34154.6 hPa SW 1.4 mph /  2.3 km/h 4.8 mph /  7.7 km/h 93 % 0.0 in /  0 mm
20:06 2.3 °F /  -16.5 °C 1.3 °F /  -17.1 °C 1008.7 in /  34154.6 hPa WSW 3.2 mph /  5.1 km/h 4.8 mph /  7.7 km/h 93 % 0.0 in /  0 mm
20:12 2.3 °F /  -16.5 °C 1.3 °F /  -17.1 °C 1008.7 in /  34154.6 hPa West 4.7 mph /  7.6 km/h 8.0 mph /  12.9 km/h 93 % 0.0 in /  0 mm
20:18 2.4 °F /  -16.4 °C 1.2 °F /  -17.1 °C 1008.7 in /  34154.6 hPa West 7.9 mph /  12.7 km/h 9.7 mph /  15.6 km/h 92 % 0.0 in /  0 mm
20:24 2.4 °F /  -16.4 °C 1.2 °F /  -17.1 °C 1009.0 in /  34164.7 hPa WSW 3.2 mph /  5.1 km/h 8.0 mph /  12.9 km/h 92 % 0.0 in /  0 mm
20:30 2.5 °F /  -16.4 °C 1.3 °F /  -17.1 °C 1009.0 in /  34164.7 hPa West 3.2 mph /  5.1 km/h 8.0 mph /  12.9 km/h 92 % 0.0 in /  0 mm
20:36 2.5 °F /  -16.4 °C 1.3 °F /  -17.1 °C 1009.0 in /  34164.7 hPa WNW 7.9 mph /  12.7 km/h 8.0 mph /  12.9 km/h 92 % 0.0 in /  0 mm
20:42 2.6 °F /  -16.3 °C 1.4 °F /  -17 °C 1009.0 in /  34164.7 hPa West 1.4 mph /  2.3 km/h 6.4 mph /  10.3 km/h 92 % 0.0 in /  0 mm
20:48 2.6 °F /  -16.3 °C 1.4 °F /  -17 °C 1009.0 in /  34164.7 hPa West 3.2 mph /  5.1 km/h 8.0 mph /  12.9 km/h 92 % 0.0 in /  0 mm
20:54 2.6 °F /  -16.3 °C 1.3 °F /  -17.1 °C 1009.0 in /  34164.7 hPa WNW 4.7 mph /  7.6 km/h 9.7 mph /  15.6 km/h 91 % 0.0 in /  0 mm
21:00 2.5 °F /  -16.4 °C 1.2 °F /  -17.1 °C 1009.0 in /  34164.7 hPa West 4.7 mph /  7.6 km/h 6.4 mph /  10.3 km/h 91 % 0.0 in /  0 mm
21:06 2.4 °F /  -16.4 °C 1.2 °F /  -17.1 °C 1009.0 in /  34164.7 hPa West 6.4 mph /  10.3 km/h 9.7 mph /  15.6 km/h 92 % 0.0 in /  0 mm
21:12 2.4 °F /  -16.4 °C 1.2 °F /  -17.1 °C 1009.0 in /  34164.7 hPa West 4.7 mph /  7.6 km/h 9.7 mph /  15.6 km/h 92 % 0.0 in /  0 mm
21:18 2.4 °F /  -16.4 °C 1.2 °F /  -17.1 °C 1009.0 in /  34164.7 hPa WNW 7.9 mph /  12.7 km/h 12.9 mph /  20.8 km/h 92 % 0.0 in /  0 mm
21:24 2.5 °F /  -16.4 °C 1.3 °F /  -17.1 °C 1009.0 in /  34164.7 hPa West 4.7 mph /  7.6 km/h 8.0 mph /  12.9 km/h 92 % 0.0 in /  0 mm
21:30 2.6 °F /  -16.3 °C 1.4 °F /  -17 °C 1009.0 in /  34164.7 hPa West 7.9 mph /  12.7 km/h 11.3 mph /  18.2 km/h 92 % 0.0 in /  0 mm
21:36 2.5 °F /  -16.4 °C 1.2 °F /  -17.1 °C 1009.0 in /  34164.7 hPa WNW 3.2 mph /  5.1 km/h 6.4 mph /  10.3 km/h 91 % 0.0 in /  0 mm
21:42 2.4 °F /  -16.4 °C 1.1 °F /  -17.2 °C 1009.0 in /  34164.7 hPa WNW 9.7 mph /  15.6 km/h 9.7 mph /  15.6 km/h 91 % 0.0 in /  0 mm
21:48 2.3 °F /  -16.5 °C 1.1 °F /  -17.2 °C 1009.0 in /  34164.7 hPa West 6.4 mph /  10.3 km/h 8.0 mph /  12.9 km/h 92 % 0.0 in /  0 mm
21:54 2.2 °F /  -16.6 °C 1.0 °F /  -17.2 °C 1009.0 in /  34164.7 hPa WNW 3.2 mph /  5.1 km/h 9.7 mph /  15.6 km/h 92 % 0.0 in /  0 mm
22:00 2.2 °F /  -16.6 °C 1.0 °F /  -17.2 °C 1009.0 in /  34164.7 hPa WNW 3.2 mph /  5.1 km/h 8.0 mph /  12.9 km/h 92 % 0.0 in /  0 mm
22:06 2.1 °F /  -16.6 °C 0.9 °F /  -17.3 °C 1009.0 in /  34164.7 hPa Calm   3.2 mph /  5.1 km/h 92 % 0.0 in /  0 mm
22:12 1.9 °F /  -16.7 °C 0.7 °F /  -17.4 °C 1009.0 in /  34164.7 hPa WNW 1.4 mph /  2.3 km/h 4.8 mph /  7.7 km/h 92 % 0.0 in /  0 mm
22:18 1.9 °F /  -16.7 °C 0.9 °F /  -17.3 °C 1009.0 in /  34164.7 hPa Calm   1.6 mph /  2.6 km/h 93 % 0.0 in /  0 mm
22:24 1.9 °F /  -16.7 °C 0.9 °F /  -17.3 °C 1009.4 in /  34178.3 hPa Calm   1.6 mph /  2.6 km/h 93 % 0.0 in /  0 mm
22:30 1.7 °F /  -16.8 °C 0.5 °F /  -17.5 °C 1009.0 in /  34164.7 hPa Calm     92 % 0.0 in /  0 mm
22:36 1.5 °F /  -16.9 °C 0.5 °F /  -17.5 °C 1009.4 in /  34178.3 hPa SE 1.4 mph /  2.3 km/h 1.6 mph /  2.6 km/h 93 % 0.0 in /  0 mm
22:42 1.4 °F /  -17 °C 0.4 °F /  -17.6 °C 1009.4 in /  34178.3 hPa SE 1.4 mph /  2.3 km/h 3.2 mph /  5.1 km/h 93 % 0.0 in /  0 mm
22:48 1.1 °F /  -17.2 °C 0.1 °F /  -17.7 °C 1009.4 in /  34178.3 hPa SSE 1.4 mph /  2.3 km/h 3.2 mph /  5.1 km/h 93 % 0.0 in /  0 mm
22:54 1.0 °F /  -17.2 °C 0.1 °F /  -17.7 °C 1009.4 in /  34178.3 hPa Calm     94 % 0.0 in /  0 mm
23:00 0.8 °F /  -17.3 °C -0.1 °F /  -17.8 °C 1009.4 in /  34178.3 hPa Calm     94 % 0.0 in /  0 mm
23:07 0.8 °F /  -17.3 °C -0.1 °F /  -17.8 °C 1009.4 in /  34178.3 hPa Calm     94 % 0.0 in /  0 mm
23:13 0.7 °F /  -17.4 °C 0.0 °F /  -17.8 °C 1009.4 in /  34178.3 hPa Calm     95 % 0.0 in /  0 mm
23:19 0.8 °F /  -17.3 °C 0.1 °F /  -17.7 °C 1009.4 in /  34178.3 hPa Calm     95 % 0.0 in /  0 mm
23:25 0.7 °F /  -17.4 °C 0.0 °F /  -17.8 °C 1009.4 in /  34178.3 hPa SE 1.4 mph /  2.3 km/h 1.6 mph /  2.6 km/h 95 % 0.0 in /  0 mm
23:31 0.6 °F /  -17.4 °C -0.1 °F /  -17.8 °C 1009.4 in /  34178.3 hPa Calm     95 % 0.0 in /  0 mm
23:37 0.6 °F /  -17.4 °C -0.1 °F /  -17.8 °C 1009.4 in /  34178.3 hPa Calm     95 % 0.0 in /  0 mm
23:43 0.6 °F /  -17.4 °C -0.1 °F /  -17.8 °C 1009.4 in /  34178.3 hPa Calm     95 % 0.0 in /  0 mm
23:49 0.5 °F /  -17.5 °C -0.2 °F /  -17.9 °C 1009.4 in /  34178.3 hPa Calm     95 % 0.0 in /  0 mm
23:55 0.6 °F /  -17.4 °C 0.0 °F /  -17.8 °C 1009.4 in /  34178.3 hPa Calm     96 % 0.0 in /  0 mm
Meteo18
Compliments of Weather Underground - 4 mb

Script developed by  Jim McMurry - jmcmurry@mwt.net Adapted for the template by  Wim van der Kuil - Leuven-Template.eu

You find our weather info also at:

European Weather Network

Weather Underground

Equipment we use:

Weather-station
Davis Vue

Weather-program
Meteobridge

Weather-server
Raspberry PI 2 B+

Provider
1 and 1

Davis Vue

Meteobridge

Raspberry PI 2 B+

1 and 1